Location: Mactaquac Provincial Park
(45.9573°N, 66.8897°W)
Time: 18:16:42
(UTC-04:00)

Daily predictions for brighter satellites

Satellite Brightness Start Highest point End
(mag) Time Altitude Azimuth Time Altitude Azimuth Time Altitude Azimuth
Cosmos 2263 Rocket 2.3 17:08:06 10° SSW 17:13:43 89° ESE 17:19:24 10° NNE
Cosmos 1606 2.9 17:10:49 10° S 17:14:45 85° W 17:18:42 10° N
SMAP 3.6 17:10:34 10° SE 17:14:50 38° ENE 17:19:08 10° N
MOZ.5/SAFIR/RUBIN 5/SL-8 4.5 17:10:21 10° N 17:14:55 57° WNW 17:19:29 10° SSW
Thor Agena Rocket 4.3 17:10:21 10° NNE 17:15:02 33° E 17:19:44 10° SSE
Okean 3 4.0 17:13:52 10° SSE 17:17:54 41° E 17:21:56 10° NNE
SJ-12 4.3 17:15:06 10° SE 17:18:56 40° ENE 17:22:48 10° N
ATLAS 2AS CENTAUR R/B 3.4 17:11:10 10° NW 17:18:57 46° NE 17:26:23 10° ESE
Cosmos 1125 Rocket 3.9 17:13:58 10° S 17:19:03 49° ESE 17:24:10 10° NNE
Cosmos 1269 Rocket 4.0 17:14:50 10° NNW 17:20:10 69° ENE 17:25:26 10° SSE
Cosmos 1937 Rocket 4.3 17:15:17 10° SW 17:20:26 53° WNW 17:25:35 10° NNE
SL-8 Rocket 4.4 17:17:39 10° N 17:23:24 39° ENE 17:29:06 10° SE
CZ-4 R/B 1.5 17:21:21 10° SSE 17:25:27 57° ENE 17:29:34 10° N
CSL-04 Debris 4.5 17:20:14 10° S 17:25:37 74° WSW 17:31:03 10° NNW
CSL-04 Rocket 4.4 17:22:52 10° S 17:28:14 61° WSW 17:33:43 10° NNW
Cosmos 2251 Rocket 4.3 17:25:19 10° N 17:30:02 30° ENE 17:34:41 10° ESE
Meteor 1-27 Rocket 3.8 17:25:19 10° S 17:31:12 87° E 17:36:59 10° NNE
Cosmos 2218 Rocket 4.4 17:27:13 10° N 17:33:08 39° ENE 17:38:55 10° SE
Cosmos 1812 4.4 17:32:44 10° ESE 17:35:02 15° E 17:36:54 12° NE
Cosmos 1300 Rocket 4.2 17:31:04 10° NNW 17:35:22 60° W 17:39:37 10° S
Cosmos 2181 Rocket 4.2 17:29:30 10° SSE 17:35:39 57° E 17:41:56 10° NNE
YAOGAN 1 2.7 17:32:17 10° SSE 17:36:30 54° ENE 17:40:45 10° N
Cosmos 1633 2.8 17:34:25 10° NNW 17:38:02 74° W 17:41:36 10° S
BREEZE-M DEB (TANK) 3.9 17:29:09 10° WSW 17:40:03 65° NNW 17:44:01 13° ENE
Cosmos 1844 Rocket 3.4 17:35:47 10° S 17:40:46 35° ESE 17:45:48 10° NE
MOS 1 4.2 17:35:23 10° SSE 17:41:02 76° ENE 17:46:42 10° NNW
CZ-3A R/B 4.4 17:15:12 10° SW 17:41:10 79° NW 17:46:37 12° NE
ASTEX 1 4.5 17:36:37 10° N 17:41:27 49° WNW 17:46:14 10° SSW
Cosmos 1975 4.2 17:39:17 10° NNE 17:42:07 18° ENE 17:44:56 10° ESE
ERBS 4.4 17:42:25 10° WNW 17:44:54 18° NNW 17:47:24 10° NNE
Abrixas 2.6 17:42:03 10° W 17:44:58 59° N 17:47:01 18° ENE
OTV 4 3.1 17:46:32 10° SW 17:48:26 16° S 17:50:20 10° SE
Cosmos 1378 Rocket 3.6 17:44:20 10° S 17:48:39 82° W 17:52:59 10° N
GEOS 3 Rocket 3.6 17:46:47 10° ESE 17:51:48 58° NE 17:56:50 10° NNW
Cosmos 2341 Rocket 4.1 17:47:24 10° N 17:53:39 80° W 17:59:51 10° S
SL-27 R/B 2.9 17:50:46 10° N 17:54:16 40° ENE 17:57:44 10° SE
Cosmos 1295 Rocket 4.4 17:48:42 10° N 17:54:53 82° E 18:00:59 10° S
Cosmos 1455 Rocket 3.5 17:53:00 10° N 17:57:08 39° ENE 18:01:16 10° SE
CORIOLIS 4.2 17:55:38 10° SSE 18:01:03 89° ENE 18:06:30 10° NNW
COSMOS 2406 3.4 17:55:58 10° NNW 18:01:42 80° WSW 18:07:26 10° SSE
ISS -2.2 18:02:00 10° SSW 18:04:57 31° SE 18:06:08 24° ESE
Cosmos 158 Rocket 4.2 17:59:43 10° NNW 18:05:08 80° WSW 18:10:25 10° SSE
Cosmos 2278 Rocket 3.2 18:01:30 10° SSE 18:06:03 26° ESE 18:08:11 21° ENE
Meteor 1-5 Rocket 4.3 18:06:52 10° NNW 18:12:15 77° W 18:17:45 10° S
SPOT 3 Rocket 4.3 18:12:36 10° S 18:17:41 56° W 18:22:48 10° NNW
CZ-2C R/B 3.2 18:12:56 10° S 18:17:47 57° W 18:22:49 10° NNW
Cosmos 1484 Rocket 2.5 18:17:37 10° SSE 18:21:23 70° ENE 18:25:07 10° N
Cosmos 1238 Rocket 1.9 18:22:11 10° S 18:25:07 63° E 18:25:31 55° NE
ATLAS CENTAUR R/B 4.1 18:24:08 10° NW 18:25:21 11° NNW 18:26:32 10° N
ASTRO F (AKARI) 4.3 18:23:44 20° N 18:25:49 78° WNW 18:28:56 10° SSW
MONITOR-E 4.4 18:23:04 10° S 18:26:14 73° WSW 18:29:27 10° NNW
Cosmos 2082 Rocket 2.9 18:23:18 10° N 18:28:14 30° NE 18:28:55 29° ENE
BREEZE M DEB (TANK) 3.9 18:22:40 10° SSW 18:29:35 27° SSE 18:30:50 23° SE
Genesis I 4.3 18:27:25 10° NNW 18:30:15 28° NNE 18:30:15 28° NNE
Nadezhda 3 Rocket 4.4 18:25:50 10° SSE 18:31:29 39° E 18:36:28 13° NNE
IDEFIX/ARIANE 42P 3.7 18:26:51 10° S 18:31:49 45° W 18:36:49 10° NNW
Cosmos 864 Rocket 4.5 18:28:06 10° N 18:34:24 89° E 18:40:42 10° S
Cosmos 1833 Rocket 3.5 18:31:41 10° N 18:36:28 29° NE 18:36:28 29° NE
USA 32 4.3 18:31:33 10° SSW 18:36:45 69° W 18:41:59 10° N
Meteor 2-21 4.4 18:31:51 10° N 18:37:59 58° ENE 18:44:02 10° SSE
BREEZE M DEB (TANK) 3.0 18:36:12 10° WNW 18:39:25 64° NNE 18:42:21 32° E
Okean 1 3.2 18:37:18 10° S 18:41:18 63° E 18:42:08 49° NE
COSMO-SKYMED 1 2.4 18:39:19 21° NNE 18:42:13 83° ESE 18:46:33 10° SSW
Cosmos 1544 Rocket 4.4 18:40:45 10° NNW 18:45:05 52° W 18:49:25 10° S
Meteor 1-18 Rocket 4.2 18:39:46 10° S 18:45:24 88° E 18:51:10 10° NNE
USA 234 3.8 18:42:38 24° NE 18:46:29 50° NNW 18:52:44 10° W
SL-24 DEB 4.4 18:43:23 10° N 18:48:11 77° W 18:52:53 10° SSW
Cosmos 1500 4.3 18:47:08 10° N 18:54:19 13° SSE 18:54:47 10° SSE
Meteor 1-28 Rocket 3.8 18:54:50 44° SSE 18:54:50 44° SSE 18:57:35 10° S
NOSS 3-4 (A) 4.4 18:48:10 10° NNW 18:54:22 35° NE 18:55:14 34° NE
NOSS 3-4 (C) 4.4 18:48:16 10° NNW 18:54:29 35° NE 18:55:19 34° NE
METEOR-M 4.0 18:52:56 10° SSE 18:58:14 70° ENE 19:03:34 10° N
Cosmos 2263 Rocket 4.4 18:54:31 10° W 18:58:28 19° NW 19:02:27 10° N
CZ-3B DEB 2.5 18:56:39 10° SW 19:00:58 83° SE 19:05:05 35° ENE
NOAA 12 4.0 18:56:05 10° SSE 19:01:22 86° ENE 19:06:41 10° NNW
Meteor 2-14 Rocket 4.3 18:56:53 10° N 19:03:02 66° ENE 19:09:08 10° SSE
NOSS 3-3 (A) 4.0 18:57:33 10° SSW 19:03:37 59° ESE 19:04:55 50° ENE
NOSS 3-3 (C) 4.0 18:57:39 10° SSW 19:03:43 58° ESE 19:04:58 50° E
Cosmos 1346 Rocket 4.2 19:01:01 10° S 19:02:56 27° S 19:02:56 27° S
Cosmos 1536 Rocket 4.0 19:02:21 10° SSW 19:06:46 62° WNW 19:09:12 26° N
ATLAS 2AS CENTAUR R/B 3.5 19:02:25 10° NW 19:10:20 59° WSW 19:17:43 10° SSE
Cosmos 1812 3.9 19:06:54 10° SSW 19:10:33 41° WNW 19:12:08 27° NNW
Meteor 2-21 Rocket 4.4 19:11:10 10° N 19:17:24 88° W 19:23:35 10° S
Cosmos 1975 4.1 19:15:00 10° NNW 19:18:51 41° W 19:22:39 10° SSW
Meteor 2-16 Rocket 4.3 19:17:49 10° N 19:23:57 86° E 19:30:03 10° S
Cosmos 1844 Rocket 3.8 19:19:19 10° SW 19:24:34 40° NW 19:27:30 23° N
Timation 2 Rocket 4.0 19:19:18 10° NNW 19:26:09 84° ENE 19:28:08 50° SE
Cosmos 1535 Rocket 4.3 19:21:02 10° N 19:27:25 80° E 19:33:40 10° S
ISS -0.2 19:38:06 10° W 19:38:49 15° W 19:38:49 15° W
BREEZE-M R/B 4.1 19:40:38 10° WSW 19:47:38 60° SW 19:47:38 60° SW
Cosmos 2278 Rocket 2.8 19:44:17 10° SW 19:49:47 53° WNW 19:50:04 52° NW
Cosmos 1821 Rocket 4.1 19:48:14 10° NNW 19:54:18 67° W 19:54:32 67° WSW
Cosmos 2082 Rocket 3.4 20:07:07 10° NW 20:10:50 38° WNW 20:10:50 38° WNW
Cosmos 1833 Rocket 4.3 20:15:20 10° NW 20:18:13 29° NW 20:18:13 29° NW
